User: anonymous   Login
Location: Hookston
(37.9413°N, 122.0527°W)
Time: 17:01:08
(UTC+00:00)
Language:

Cosmos 1538 Rocket - Orbit

View from above orbital plane
View from above orbital plane
View from above satellite
View from above satellite

Ground track
Ground track

The orbit data is extracted from the following two-line orbital elements,

1 14760U 84019B   24195.89232880  .00000401  00000-0  14466-3 0  9990
2 14760  74.0430  60.9837 0027381   4.0463 356.0906 14.36553580114442
Epoch (UTC): 13 July 2024 21:24:57
Eccentricity: 0.0027381
inclination: 74.0430°
perigee height: 750 km
apogee height: 789 km
right ascension of ascending node: 60.9837°
argument of perigee: 4.0463°
revolutions per day: 14.36553580
mean anomaly at epoch: 356.0906°
orbit number at epoch: 11444

The dashed part of the orbit path shows where the satellite is in the earth's shadow,  

DLR